VHCBA YBCG-YSPT

Flight info

Callsign VHCBA
Flight time N/A
Altitude 1000
Route DCT YSPT
Aircraft R44/L-SDGRY/C

Departure

Time N/A
Airport Gold Coast Airport (YBCG)

Arrival

Time 2026-04-12 06:58
Airport Southport Airport (YSPT)
Time Latitude Longitude Altitude Speed Heading
2026-04-12 06:58 -27.95986 153.42401 2 ft 0 kts 145°
2026-04-12 06:58 -27.95988 153.42402 3 ft 2 kts 143°
2026-04-12 06:59 -27.95919 153.42373 121 ft 37 kts 340°
2026-04-12 06:59 -27.95578 153.42178 378 ft 70 kts 329°
2026-04-12 06:59 -27.95144 153.41749 404 ft 96 kts 306°
2026-04-12 07:00 -27.94285 153.40492 365 ft 103 kts 296°
2026-04-12 07:00 -27.93979 153.39925 396 ft 73 kts 311°
2026-04-12 07:00 -27.93684 153.39439 363 ft 77 kts 304°
2026-04-12 07:00 -27.93407 153.38932 354 ft 77 kts 298°
2026-04-12 07:01 -27.93154 153.38425 325 ft 73 kts 299°
2026-04-12 07:01 -27.92942 153.37900 251 ft 69 kts 291°
2026-04-12 07:01 -27.92737 153.37526 291 ft 62 kts 283°
2026-04-12 07:01 -27.92627 153.37107 197 ft 42 kts 326°
2026-04-12 07:02 -27.92375 153.37052 45 ft 70 kts 25°
2026-04-12 07:02 -27.91887 153.37351 52 ft 87 kts 48°
2026-04-12 07:02 -27.91953 153.37268 28 ft 85 kts 198°
2026-04-12 07:02 -27.92238 153.37105 35 ft 13 kts 166°
2026-04-12 07:03 -27.92339 153.37077 33 ft 16 kts 124°
2026-04-12 07:03 -27.92411 153.37068 6 ft 2 kts 101°
2026-04-12 07:03 -27.92424 153.37062 5 ft 4 kts 133°
2026-04-12 07:03 -27.92445 153.37057 -2 ft 4 kts 191°
2026-04-12 07:04 -27.92468 153.37049 -1 ft 0 kts 111°